This demonstration page uses our WeatherBlox Daily Observations layout. Learn more.

Left ArrowRight Arrow

Hourly Observations for February 22, 2023

Temp ( °F °C ) Dew Point ( °F °C ) Humidity (%) Winds ( mph kmh ) Pressure ( in mb ) Visibility ( mi km ) Precip ( " mm )
12:15 am 00:15 Clear 39 4 25 -4 56 56 NW 10 17 29.70 1006 10 16 0.00 0.00
12:35 am 00:35 Clear 39 4 25 -4 56 56 NNW 8 13 29.70 1006 10 16 0.00 0.00
12:55 am 00:55 Clear 41 5 23 -5 48 48 NNW 13 20 29.70 1006 10 16 0.00 0.00
1:15 am 01:15 Clear 41 5 23 -5 48 48 NNW 9 15 29.70 1006 10 16 0.00 0.00
1:35 am 01:35 Clear 41 5 23 -5 48 48 NW 13 20 29.70 1006 10 16 0.00 0.00
1:55 am 01:55 Clear 39 4 23 -5 52 52 NNW 12 19 29.70 1006 10 16 0.00 0.00
2:15 am 02:15 Clear 39 4 25 -4 56 56 NNW 9 15 29.70 1006 10 16 0.00 0.00
2:35 am 02:35 Clear 39 4 25 -4 56 56 NNE 5 7 29.70 1006 10 16 0.00 0.00
2:55 am 02:55 Clear 39 4 23 -5 52 52 N 5 7 29.69 1005 10 16 0.00 0.00
3:15 am 03:15 Clear 37 3 23 -5 56 56 NNE 6 9 29.69 1005 10 16 0.00 0.00
3:35 am 03:35 Partly Cloudy 36 2 23 -5 60 60 NE 6 9 29.68 1005 10 16 0.00 0.00
3:55 am 03:55 Mostly Cloudy 37 3 23 -5 56 56 N 6 9 29.68 1005 10 16 0.00 0.00
4:15 am 04:15 Partly Cloudy 37 3 23 -5 56 56 NE 8 13 29.69 1005 10 16 0.00 0.00
4:35 am 04:35 Mostly Clear 37 3 23 -5 56 56 NE 7 11 29.69 1005 10 16 0.00 0.00
4:55 am 04:55 Mostly Clear 37 3 23 -5 56 56 NNE 7 11 29.69 1005 10 16 0.00 0.00
5:15 am 05:15 Clear 36 2 23 -5 60 60 NNE 7 11 29.69 1006 10 16 0.00 0.00
5:35 am 05:35 Clear 36 2 23 -5 60 60 NNE 6 9 29.69 1006 10 16 0.00 0.00
5:55 am 05:55 Clear 36 2 23 -5 60 60 N 5 7 29.70 1006 10 16 0.00 0.00
6:15 am 06:15 Clear 36 2 23 -5 60 60 N 5 7 29.70 1006 10 16 0.00 0.00
6:35 am 06:35 Clear 36 2 23 -5 60 60 N 5 7 29.71 1006 10 16 0.00 0.00
6:47 am 06:47 Clear 36 2 23 -5 60 60 N 7 11 29.71 1006 10 16 0.00 0.00
6:55 am 06:55 Sunny 36 2 23 -5 60 60 NNE 7 11 29.71 1006 8 13 0.00 0.00
7:15 am 07:15 Sunny 36 2 23 -5 60 60 NNE 6 9 29.72 1007 10 16 0.00 0.00
7:35 am 07:35 Sunny 37 3 23 -5 56 56 NE 7 11 29.72 1006 10 16 0.00 0.00
7:55 am 07:55 Sunny 37 3 23 -5 56 56 NE 7 11 29.73 1007 10 16 0.00 0.00
8:15 am 08:15 Sunny 41 5 23 -5 48 48 N 3 6 29.73 1007 10 16 0.00 0.00
8:47 am 08:47 Sunny 41 5 25 -4 52 52 Calm 29.74 1007 10 16 0.00 0.00
9:47 am 09:47 Sunny 46 8 25 -4 42 42 NW 8 13 29.75 1007 10 16 0.00 0.00
10:47 am 10:47 Mostly Cloudy 46 8 23 -5 39 39 NW 6 9 29.75 1007 10 16 0.00 0.00
11:47 am 11:47 Mostly Sunny 48 9 23 -5 37 37 S 12 19 29.75 1007 10 16 0.00 0.00
12:53 pm 12:53 Partly Cloudy 48 9 23 -5 37 37 SSW 12 19 29.72 1007 10 16 0.00 0.00
1:47 pm 13:47 Mostly Cloudy 48 9 21 -6 34 34 S 9 15 29.70 1006 10 16 0.00 0.00
2:53 pm 14:53 Mostly Cloudy 48 9 23 -5 37 37 SW 12 19 29.70 1006 10 16 0.00 0.00
3:47 pm 15:47 Partly Cloudy 48 9 27 -3 43 43 SSE 17 28 29.70 1006 10 16 0.00 0.00
4:47 pm 16:47 Mostly Cloudy 45 7 30 -1 57 57 SE 23 37 29.69 1005 10 16 0.00 0.00
5:47 pm 17:47 Mostly Cloudy with Showers Nearby 43 6 30 -1 61 61 E 12 19 29.69 1005 10 16 0.00 0.00
6:47 pm 18:47 Mostly Cloudy 43 6 28 -2 56 56 ENE 7 11 29.69 1005 10 16 0.00 0.00
10:15 pm 22:15 Mostly Cloudy 39 4 32 0 75 75 ESE 6 9 29.72 1006 10 16 0.00 0.00
10:55 pm 22:55 Cloudy 39 4 30 -1 70 70 ESE 6 9 29.73 1007 10 16 0.00 0.00
11:15 pm 23:15 Cloudy 39 4 30 -1 70 70 ESE 7 11 29.73 1007 10 16 0.00 0.00
11:35 pm 23:35 Partly Cloudy 37 3 28 -2 70 70 ESE 6 9 29.74 1007 10 16 0.00 0.00
11:55 pm 23:55 Clear 37 3 27 -3 65 65 ESE 7 11 29.74 1007 10 16 0.00 0.00

Powered by AerisWeather